PISAT

Last updated on July 6, 2021, 3:43 p.m. UTC

1 41784U 16059B   21186.83146612  .00000122  00000-0  32340-4 0  9995
2 41784  97.9654 237.7299 0031908 181.8838 178.2250 14.63636479254985
UTC
Height (km)
Latitude
Longitude
Inclination
Orbital Period
UTC large
Height (km)
Speed (km/s)
/
Latitude / Longitude
Inclination (degrees)
Orbital Period (minutes)
Azimuth
Elevation
Range (km)
Doppler Factor
iOS Compass Heading
iOS Angle